AirNav   ATP
 
 270 users online  

D72 D&C Fire Lake Flying Club Seaplane Base
Eagle River, Alaska, USA

GOING TO EAGLE RIVER?


FAA INFORMATION EFFECTIVE 09 NOVEMBER 2017

Location

FAA Identifier: D72
Lat/Long: 61-21-09.0700N / 149-32-46.8600W
61-21.151167N / 149-32.781000W
61.3525194 / -149.5463500
(estimated)
Elevation: 295 ft. / 90 m (estimated)
From city: 2 miles N of EAGLE RIVER, AK
Time zone: UTC -9 (UTC -8 during Daylight Saving Time)
Zip code: 99577

Seaplane Base Operations

Seaplane Base use: Open to the public
Activation date: 05/2003
Control tower: no
ARTCC: ANCHORAGE CENTER
FSS: KENAI FLIGHT SERVICE STATION [907-283-8469]
NOTAMs facility: ENA (NOTAM-D service available)
Attendance: UNATNDD
Segmented circle: no

Seaplane Base Communications

CTAF/UNICOM: 123.0
WX AWOS-3P at BCV (4 nm N): 135.55 (907-688-0826)
WX AWOS-3 at FRN (6 nm SW): 118.525 (907-384-0132)
WX ASOS at MRI (12 nm SW): PHONE 907-272-0542
WX AWOS-3P at IYS (13 nm N): 135.25 (907-373-3801)
WX ASOS at LHD (16 nm SW): PHONE 907-245-1618
WX ASOS at ANC (17 nm SW): 118.4 (907-248-2033)
WX ASOS at PAQ (20 nm NE): 134.75 (907-746-6675)

Nearby radio navigation aids

VOR radial/distance  VOR name  Freq  Var
TEDr029/16.3ANCHORAGE VOR/DME113.1518E
BGQr118/17.7BIG LAKE VORTAC112.5019E

 
NDB name  Hdg/Dist  Freq  Var  ID
CAMPBELL LAKE035/18.133818ECMQ -.-. -- --.-

Seaplane Base Services

Runway Information

Runway N/S

Dimensions: 3500 x 200 ft. / 1067 x 61 m
Surface: water
RUNWAY N  RUNWAY S
Traffic pattern: leftleft

Seaplane Base Ownership and Management from official FAA records

Ownership: Privately-owned
Owner: CHRISTOPHER & DEBBY HUDSON
14111 W. LAKE RIDGE DR
EAGLE RIVER, AK 99577
Phone 907-696-1037
Manager: CHRISTOPHER HUDSON
14111 W. LAKE RIDGE DR
EAGLE RIVER, AK 99577
Phone 907-250-7834

Seaplane Base Operational Statistics

Aircraft based on the field: 65
Single engine airplanes: 65
    
Aircraft operations: avg 25/week *
92% local general aviation
8% transient general aviation
<1% air taxi
* for 12-month period ending 31 December 2013

Additional Remarks

PUB BEACHING AREA IN SW CORNER OF LAKE. NO DOCK. BEACH IS STEEPLY SLOPED, ROCKS ON BEACH UP TO 4 IN. ROAD WITHIN 15 FT OF SHORE LINE AT BEACHING AREA.
ALL OTHER PROPERTY ON LAKE IS PVT/ NON-COML.
TRANSIENT OVERNIGHT PARKING AVBL. CALL BEFORE ARRIVAL 907-250-7834.

Instrument Procedures

There are no published instrument procedures at D72.

Some nearby airports with instrument procedures:

PAFR - Bryant Army Airfield Heliport (6 nm SW)
PAED - Elmendorf Air Force Base (10 nm SW)
PAMR - Merrill Field Airport (12 nm SW)
PAWS - Wasilla Airport (13 nm N)
PAGQ - Big Lake Airport (13 nm NW)
PANC - Ted Stevens Anchorage International Airport (17 nm SW)
PAAQ - Palmer Buddy Woods Municipal Airport (20 nm NE)
 
Loc | Ops | Rwys | IFR | FBO | Links
Com | Nav | Svcs | Stats | Notes

Crowley
 
Area around D72 (D&C Fire Lake Flying Club Seaplane Base)
 
Road maps at: MapQuest Bing Google
 
Aerial photo
WARNING: Photo may not be current or correct
Aerial photo of D72 (D&C Fire Lake Flying Club Seaplane Base)
Taken in August 2001

Do you have a better or more recent aerial photo of D&C Fire Lake Flying Club Seaplane Base that you would like to share? If so, please send us your photo.

 
Sectional chart

 
Airport distance calculator
Flying to D&C Fire Lake Flying Club Seaplane Base? Find the distance to fly.

From to D72

Sunrise and sunset
Times for 25-Nov-2017
 Local
(UTC-9)
 Zulu
(UTC)
Morning civil twilight08:3717:37
Sunrise09:3318:33
Sunset15:5800:58
Evening civil twilight16:5401:54

Current date and time
Zulu (UTC)  25-Nov-2017 10:04:44
Local (UTC-9)  25-Nov-2017 01:04:44
 
METAR
PABV 
4nm N 
250956Z AUTO 14005KT 10SM CLR M15/M20 A2970 RMK AO2 SLP066 T11501200 FZRANO $
PAFR 
6nm SW 
250954Z AUTO 00000KT 10SM CLR M20/M23 A2967 RMK AO1
PAED 
10nm SW 
250956Z AUTO 01004KT 10SM CLR M14/M20 A2968 RMK AO2 SLP050 T11411197 $
PAMR 
12nm SW 
250953Z 00000KT 10SM CLR M14/M18 A2969 RMK AO2 SLP056 T11391178
PALH 
16nm SW 
250953Z 34016G21KT 10SM CLR M08/M16 A2971 RMK AO2 SLP060 T10781161
PANC 
18nm SW 
250953Z 35016G21KT 10SM CLR M07/M16 A2971 RMK AO2 SLP065 T10721156
PAAQ 
20nm NE 
250953Z AUTO 07014G22KT 040V110 10SM CLR M07/M18 A2965 RMK AO2 PK WND 04037/0907 SLP046 T10721183 TSNO
TAF
PAED 
10nm SW 
250300Z 2503/2609 33010G15KT 9999 SKC QNH2957INS BECMG 2507/2508 36009KT 9999 SKC QNH2960INS TXM07/2503Z TNM15/2518Z
PANC 
18nm SW 
250535Z 2506/2612 36010G23KT P6SM SKC FM251400 01010KT P6SM SKC FM252100 02004KT P6SM SKC
PAAQ 
20nm NE 
250535Z 2506/2606 03022G38KT P6SM SKC FM251200 03018G25KT P6SM SKC FM251800 03013G18KT P6SM SKC FM260000 03008KT P6SM SKC
NOTAMs
Click for the latest NOTAMs
NOTAMs are issued by the DoD/FAA and will open in a separate window not controlled by AirNav.

 

 
 

FBO, Fuel Providers, and Aircraft Ground Support

  
 Business Name 
 
 Contact 
 
 Services / Description 
 
Fuel Prices
 
Comments
  
D&C Fire Lake Flying Club Seaplane Base 907-250-7834
no information available

If you are affiliated with D&C Fire Lake Flying Club Seaplane Base and would like to show here your services, contact info, web link, logo, and more, click here
no fuel
 
   write
Update Fuel Prices
 

Would you like to see your business listed on this page?

 If your business provides an interesting product or service to pilots, flight crews, aircraft, or users of the D&C Fire Lake Flying Club Seaplane Base, you should consider listing it here.  To start the listing process, click on the button below
 
Add a business
 

Other Pages about D&C Fire Lake Flying Club Seaplane Base

Update a link
 
Copyright © AirNav, LLC. All rights reserved. Privacy Policy  Contact